Weather History for Champaign, IL

Change the Weather History Date:

Monday, May 20, 2013

  Actual Average Record
Temperature  
Mean Temperature 80 °F 64 °F  
Max Temperature 91 °F 77 °F 94 °F (2012)
Min Temperature 69 °F 53 °F 37 °F (2002)
Degree Days  
Heating Degree Days 0 4  
Month to date heating degree days 74 114  
Since 1 July heating degree days 5599 5778  
Cooling Degree Days 15 3  
Month to date cooling degree days 70 38  
Year to date cooling degree days 78 49  
Growing Degree Days 30 (Base 50)    
Moisture  
Dew Point 63 °F    
Average Humidity 60    
Maximum Humidity 84    
Minimum Humidity 35    
Precipitation  
Precipitation 0.00 in 0.15 in 0.48 in (2012)
Month to date precipitation 1.49 3.02  
Year to date precipitation 13.73 13.63  
Sea Level Pressure  
Sea Level Pressure 29.81 in    
Wind  
Wind Speed 15 mph (SSW)    
Max Wind Speed 25 mph    
Max Gust Speed 39 mph    
Visibility 10 miles    
Events Rain , Thunderstorm    
T = Trace of Precipitation, MM = Missing Value Source: NWS Daily Summary

Daily Weather History Graph

Daily Weather History Graph

Search for Another Location

Airport:

Trip Planner

Search our weather history database for the weather conditions in past years. The results will help you decide how hot, cold, wet, or windy it might be!

Date:

Astronomy

May. 20, 2013 Rise Set
Actual Time 5:33 AM CDT 8:06 PM CDT
Civil Twilight 5:02 AM CDT 8:37 PM CDT
Nautical Twilight 4:23 AM CDT 9:16 PM CDT
Astronomical Twilight 3:40 AM CDT 10:00 PM CDT
Moon 3:13 PM CDT (5/20) 2:28 AM CDT (5/20)
Length of Visible Light 15h 35m
Length of Day
14h 33m
Waxing Gibbous, 75% of the Moon is Illuminated
May 20
Waxing Gibbous
May 24
Full
May 31
Last Quarter
Jun 8
New
Jun 16
First Quarter

Hourly Weather History & Observations

Time (CDT) Temp. Heat Index Dew Point Humidity Pressure Visibility Wind Dir Wind Speed Gust Speed Precip Events Conditions
12:53 AM 75.0 °F - 66.0 °F 73% 29.82 in 10.0 mi South 11.5 mph - N/A   Clear
1:53 AM 73.0 °F - 66.0 °F 79% 29.81 in 9.0 mi South 11.5 mph - N/A   Clear
3:53 AM 72.0 °F - 66.0 °F 81% 29.81 in 9.0 mi South 12.7 mph - N/A   Clear
4:53 AM 72.0 °F - 66.0 °F 81% 29.81 in 9.0 mi South 11.5 mph - N/A   Partly Cloudy
6:12 AM 71.6 °F - 64.4 °F 78% 29.89 in 9.0 mi West 21.9 mph 27.6 mph N/A   Overcast
6:22 AM 69.8 °F - 57.2 °F 64% 29.89 in 10.0 mi West 17.3 mph - N/A   Mostly Cloudy
6:35 AM 69.8 °F - 57.2 °F 64% 29.89 in 10.0 mi West 12.7 mph 24.2 mph N/A   Mostly Cloudy
6:53 AM 70.0 °F - 57.9 °F 65% 29.86 in 10.0 mi West 8.1 mph - N/A   Partly Cloudy
7:53 AM 71.1 °F - 57.0 °F 61% 29.86 in 10.0 mi Calm Calm - N/A   Clear
8:53 AM 75.0 °F - 57.9 °F 55% 29.89 in 10.0 mi SSW 9.2 mph - N/A   Clear
10:53 AM 82.9 °F 82.1 °F 55.9 °F 39% 29.83 in 10.0 mi South 13.8 mph - N/A   Clear
11:53 AM 86.0 °F 84.7 °F 55.9 °F 36% 29.83 in 10.0 mi South 23.0 mph 34.5 mph N/A   Clear
12:53 PM 88.0 °F 86.9 °F 57.9 °F 36% 29.81 in 10.0 mi South 23.0 mph 35.7 mph N/A   Clear
1:53 PM 89.1 °F 89.3 °F 62.1 °F 40% 29.81 in 10.0 mi South 24.2 mph 35.7 mph N/A   Clear
2:53 PM 89.1 °F 90.3 °F 64.0 °F 43% 29.83 in 10.0 mi SSW 20.7 mph 33.4 mph N/A   Partly Cloudy
3:53 PM 90.0 °F 91.3 °F 64.0 °F 42% 29.81 in 10.0 mi SW 18.4 mph 28.8 mph N/A   Scattered Clouds
4:53 PM 87.1 °F 89.2 °F 66.0 °F 49% 29.79 in 10.0 mi South 21.9 mph 29.9 mph N/A   Scattered Clouds
5:53 PM 82.9 °F 85.0 °F 66.0 °F 56% 29.79 in 10.0 mi South 25.3 mph 33.4 mph N/A   Clear
6:53 PM 81.0 °F 83.3 °F 66.9 °F 62% 29.78 in 10.0 mi South 16.1 mph - N/A   Partly Cloudy
7:53 PM 78.1 °F - 66.9 °F 68% 29.76 in 9.0 mi South 12.7 mph - N/A   Partly Cloudy
8:53 PM 77.0 °F - 66.9 °F 71% 29.78 in 10.0 mi South 11.5 mph - N/A   Mostly Cloudy
9:53 PM 75.9 °F - 66.0 °F 71% 29.75 in 9.0 mi SSE 11.5 mph - N/A   Scattered Clouds
10:53 PM 77.0 °F - 66.9 °F 71% 29.74 in 10.0 mi SSE 19.6 mph 26.5 mph N/A   Scattered Clouds
10:57 PM 77.0 °F - 66.2 °F 69% 29.77 in 10.0 mi SSE 23.0 mph 31.1 mph N/A   Partly Cloudy
11:39 PM 71.6 °F - 62.6 °F 73% 29.78 in 10.0 mi WSW 12.7 mph 29.9 mph N/A Thunderstorm Mostly Cloudy
11:53 PM 68.0 °F - 62.1 °F 81% 29.78 in 10.0 mi West 18.4 mph 26.5 mph 0.00 in Rain , Thunderstorm Light Thunderstorms and Rain